ENDUROSAT ONE

Last updated on Oct. 16, 2020, 12:02 a.m. UTC

1 43551U 98067NZ  20289.40008140  .12819970  12606-4  34454-3 0  9995
2 43551  51.6143   6.3935 0004068 320.9805  39.0930 16.45548142129489

Satellite is not in orbit.